This is the latest recevied weather packets stored in our database for station/object N5KJT. If no packets are shown the sender has not sent any weather packets the latest 10 day(s).
| Time | Temp. | Humidity | Pressure | Rain* | Wind** | Luminosity | Snow |
|---|---|---|---|---|---|---|---|
| 1787606716 | 31.67° C | 25% | 1025.4 hPa | 0 mm | - | 1160 W/m² | - |
| 1787606492 | 31.67° C | 24% | - | 0 mm | - | 185 W/m² | - |
| 1787606349 | 31.67° C | 24% | 1025.7 hPa | 0 mm | - | 177 W/m² | - |
| 1787606349 | 31.11° C | 25% | 1025.5 hPa | 0 mm | - | 260 W/m² | - |
| 1787602815 | 32.78° C | 26% | - | 0 mm | - | 1200 W/m² | - |
| 1787602516 | 32.22° C | 26% | - | 0 mm | - | 1200 W/m² | - |
| 1787602216 | 32.78° C | 26% | - | 0 mm | - | 1225 W/m² | - |
| 1787601915 | 32.22° C | 28% | - | 0 mm | - | 1230 W/m² | - |
| 1787601615 | 32.22° C | 27% | - | 0 mm | - | 1215 W/m² | - |
| 1787601315 | 32.22° C | 28% | - | 0 mm | - | 113 W/m² | - |
| 1787601015 | 31.67° C | 29% | - | 0 mm | - | 1228 W/m² | - |
| 1787600716 | 31.11° C | 28% | - | 0 mm | - | 697 W/m² | - |
| 1787600415 | 31.67° C | 27% | 1027.5 hPa | 0 mm | - | 114 W/m² | - |
| 1787600116 | 32.22° C | 27% | 1028 hPa | 0 mm | - | 125 W/m² | - |
| 1787599815 | 32.22° C | 27% | 1028 hPa | 0 mm | - | 1236 W/m² | - |
| 1787599515 | 31.67° C | 27% | 1027.6 hPa | 0 mm | - | 1220 W/m² | - |
| 1787599215 | 31.67° C | 28% | 1027.6 hPa | 0 mm | - | 1210 W/m² | - |
| 1787598915 | 31.67° C | 27% | 1027.9 hPa | 0 mm | - | 1206 W/m² | - |
| 1787598616 | 31.11° C | 27% | 1027.5 hPa | 0 mm | - | 1203 W/m² | - |
| 1787598315 | 31.67° C | 28% | 1028.1 hPa | 0 mm | - | 1206 W/m² | - |
| 1787598016 | 31.67° C | 29% | 1027.8 hPa | 0 mm | - | 1204 W/m² | - |
| 1787597715 | 31.67° C | 27% | 1028.2 hPa | 0 mm | - | 1194 W/m² | - |
| 1787597415 | 31.67° C | 28% | 1028.6 hPa | 0 mm | - | 1192 W/m² | - |
| 1787597115 | 31.11° C | 28% | 1028.6 hPa | 0 mm | - | 1192 W/m² | - |
| 1787596816 | 31.11° C | 29% | 1028.7 hPa | 0 mm | - | 1191 W/m² | - |
* Rain latest hour (hover to see other rain measurements)
** Current wind speed in m/s (hover to see current wind gust speed)